Location: ????????
(55.6333°N, 37.7000°E)
Time: 00:34:40
(UTC+00:00)

Resurs 1-4 Rocket - Pass Details

Date: 22 May 2026
Orbit: 797 x 813 km, 98.8° (Epoch: 10 June)

Event Time Altitude Azimuth Distance (km) Brightness Sun altitude
Rises 23:36:02 0° 21° (NNE) 3,326 7.4 -9.0°
Reaches altitude 10° 23:38:37 10° 31° (NNE) 2,388 6.3 -8.8°
Maximum altitude 23:43:22 33° 95° (E) 1,319 3.5 -8.4°
Drops below altitude 10° 23:48:04 10° 159° (SSE) 2,368 4.2 -8.1°
Sets 23:50:36 0° 169° (S) 3,293 4.9 -7.9°
